Preview of NWS' New Version of Forecast
This preview is not operational and should not be used for support decisions.

Regional Weather Roundup (RWR)

Issued by National Weather Service (NWS)

                            
000
ASCA42 TJSJ 221810
RWRPR 
PUERTO RICO/U.S. VIRGIN ISLANDS HOURLY WEATHER ROUNDUP
NATIONAL WEATHER SERVICE SAN JUAN PR
200 PM AST MON JUL 22 2019

PRZ001>002-007>008-010-221900-
PUERTO RICO
  
CITY           SKY/WX    TMP DP  RH WIND       PRES   REMARKS
SAN JUAN LMM   MOSUNNY   86  73  66 NE21      30.00F HX  93           
AGUADILLA      SUNNY     82  73  74 E10G18    30.03S THUNDER          
CEIBA          SUNNY     90  73  58 E15       30.03F HX  98           
$$

VIZ001>002-221900-
U.S. VIRGIN ISLANDS
  
CITY           SKY/WX    TMP DP  RH WIND       PRES   REMARKS
CHARLOTTE AMA  MOSUNNY   88  73  62 SE15      30.01F HX  96           
CHRISTIANSTED  SUNNY     90  72  55 E17G24    30.02F HX  96           
$$

HOURLY WEATHER ROUNDUP FOR THE NEWS MEDIA
  
CITY           SKY/WX    TMP DP  RH WIND       PRES   REMARKS
ORLANDO        FAIR      91  69  48 SE7       30.02F HX  96           
NEW YORK       FAIR      85  75  72 SE15      29.79F HX  93           
NEWARK         FAIR      89  73  59 SE10      29.76F HX  97           
CHICAGO        FAIR      72  48  42 NE18G26   30.07S                  
HARTFORD       LGT RAIN  80  67  64 N7        29.85R                  
BOSTON         LGT RAIN  73  66  78 E13       29.87S                  
DALLAS         PTSUNNY   92  69  47 NW16      30.01S HX  97           
PHILADELPHIA   FAIR      92  71  50 S13G22    29.77F HX  98           
LOS ANGELES    PTSUNNY   70  60  70 SW5       30.00R                  
WASHINGTON DC  PTSUNNY   93  68  43 SW9       29.79F HX  97